Wind_Speed
25 24 23 22 21 20 19 20 20 18 20 23 23 22 21 19 18 15 16 17 14 17
29 26 24 22 20 21 20 19 19 20 20 20 21 22 20 19 19 17 15 15 15 18
28 30 25 23 20 20 21 19 18 18 20 21 20 20 19 19 18 18 17 15 15 15
28 30 28 23 21 19 20 19 19 18 18 19 19 19 19 19 20 19 17 15 16 14
26 29 28 23 21 21 20 18 18 19 18 18 17 18 19 20 20 21 20 17 16 14
26 30 29 24 21 22 21 19 18 20 18 18 17 17 18 19 19 20 21 18 17 16
28 30 30 26 23 23 22 20 20 21 21 19 19 18 20 21 21 21 20 19 18 17
27 30 31 29 26 26 25 22 21 21 22 21 21 20 21 24 25 24 22 20 19 18
27 29 31 31 29 28 26 24 23 23 23 21 22 22 24 26 27 26 24 21 20 19
30 32 32 30 29 31 29 28 24 23 22 20 21 24 26 25 23 23 24 24 22 20
36 34 28 29 31 31 31 31 26 23 22 19 21 23 24 21 21 22 22 24 22 21
38 38 33 33 31 33 32 31 26 23 22 21 21 22 19 20 22 22 23 23 21 19
36 41 41 33 32 32 30 31 25 25 24 23 20 21 18 20 23 24 25 24 23 22
36 39 39 33 32 29 28 32 25 27 25 23 22 20 19 21 24 25 26 25 25 25
Wind_Direction
352 355 358 356 354 356 355 351 353 351 349 351 352 349 356 348 340 327 307 296 298 277
346 346 350 351 347 347 349 349 347 345 344 350 352 345 351 353 350 342 330 316 309 295
338 340 339 342 342 343 342 341 341 341 341 344 348 351 349 354 351 346 344 331 317 312
328 334 332 333 337 339 337 335 336 339 340 341 345 346 346 349 351 352 346 341 335 328
316 326 328 324 329 331 331 329 330 335 336 336 338 340 341 345 348 352 351 346 339 339
310 319 322 319 320 324 323 323 324 327 329 328 325 329 331 333 336 345 348 344 338 336
305 311 315 314 315 319 315 314 316 320 321 322 316 316 317 318 323 329 336 336 330 332
298 301 305 310 309 313 310 306 305 310 311 313 312 309 312 314 314 316 322 326 322 321
288 287 292 301 301 303 304 300 298 303 306 305 305 307 312 310 310 313 319 322 318 312
278 279 279 288 292 292 299 299 294 299 301 300 300 306 312 312 313 315 318 320 320 314
276 274 267 276 279 286 291 295 290 294 298 297 300 306 311 313 318 316 317 320 323 319
276 270 258 275 271 281 283 290 286 290 296 294 294 303 304 311 321 325 324 324 326 327
288 275 268 272 266 271 284 288 282 288 292 292 290 297 302 313 321 323 323 325 323 318
298 295 273 258 265 265 270 278 277 286 289 287 292 293 301 309 316 317 318 321 324 325
Height
1601 1598 1595 1592 1589 1587 1584 1581 1578 1575 1571 1567 1563 1560 1557 1553 1550 1547 1545 1542 1538 1536
1600 1597 1595 1592 1588 1585 1582 1579 1577 1574 1572 1568 1563 1559 1557 1553 1548 1544 1541 1539 1535 1532
1599 1596 1592 1589 1587 1584 1581 1578 1576 1573 1570 1567 1563 1560 1556 1552 1548 1543 1539 1535 1533 1530
1597 1595 1591 1589 1586 1583 1580 1577 1575 1572 1569 1564 1561 1559 1556 1552 1548 1543 1539 1535 1531 1527
1595 1592 1589 1586 1584 1582 1579 1576 1572 1569 1567 1564 1560 1557 1555 1551 1547 1542 1538 1534 1530 1525
1592 1589 1587 1584 1582 1580 1577 1574 1570 1567 1563 1561 1559 1556 1552 1548 1545 1541 1537 1532 1528 1524
1589 1586 1583 1580 1578 1576 1573 1570 1567 1564 1561 1558 1555 1552 1549 1545 1542 1538 1535 1531 1526 1522
1583 1581 1578 1575 1573 1571 1569 1566 1563 1560 1557 1554 1551 1548 1544 1542 1538 1534 1531 1528 1524 1520
1576 1574 1572 1569 1567 1565 1562 1560 1557 1555 1552 1549 1545 1543 1540 1535 1532 1529 1525 1522 1519 1516
1567 1565 1564 1562 1560 1558 1555 1553 1550 1549 1546 1543 1540 1538 1534 1530 1526 1523 1520 1516 1513 1510
1559 1555 1554 1553 1551 1550 1548 1545 1542 1541 1539 1537 1534 1532 1529 1525 1521 1518 1515 1512 1508 1504
1550 1547 1544 1543 1542 1541 1539 1537 1535 1533 1532 1530 1528 1526 1523 1520 1516 1512 1509 1506 1503 1500
1541 1538 1535 1533 1532 1532 1531 1529 1528 1527 1525 1523 1520 1519 1517 1514 1511 1507 1503 1501 1498 1495
1532 1528 1525 1525 1524 1523 1520 1522 1518 1518 1517 1516 1514 1512 1510 1507 1504 1501 1497 1494 1491 1489